RH
51 53 53 52 51 50 50 52 53 54 55 56 58 61 62 54 43 40 42 46 46 40 37 34 30 26 24 26 30 30 31 32 32 33 34 36 36 36 38 37 39 42
57 59 58 55 52 51 52 54 55 56 57 59 60 60 56 46 35 32 37 42 41 33 27 25 26 27 27 26 27 28 27 26 26 27 27 31 31 30 31 31 30 30
67 66 61 58 55 53 52 53 55 58 58 58 57 55 48 39 31 30 32 34 30 24 22 21 25 31 31 27 26 26 24 21 20 20 19 21 23 22 21 19 19 20
70 67 59 55 52 52 53 54 55 53 50 51 52 48 41 33 30 30 31 30 27 24 22 22 25 30 29 25 24 22 19 16 14 14 15 17 17 17 17 17 18 19
69 64 56 51 49 50 52 52 50 45 44 46 46 44 38 30 28 32 33 31 28 25 23 23 25 26 24 22 20 16 14 14 13 14 16 16 14 15 15 17 19 20
68 64 56 49 48 50 51 50 48 45 44 42 41 44 39 30 32 37 37 34 31 28 26 25 26 25 20 19 18 17 18 18 17 18 20 20 20 22 23 23 25 27
66 65 57 49 47 49 51 50 47 46 45 43 45 45 37 30 34 39 38 35 33 31 30 30 30 28 22 21 23 24 25 24 25 27 29 30 31 32 33 34 33 33
63 61 57 51 48 48 51 49 44 43 43 44 47 45 36 31 34 36 36 35 33 33 34 35 36 33 30 30 30 29 30 32 34 34 34 35 37 38 40 40 40 40
60 58 56 54 51 49 50 46 40 40 41 42 45 45 37 32 33 34 35 35 34 35 36 40 41 41 39 38 34 33 36 40 42 41 39 39 40 42 43 44 45 45
60 59 57 57 55 53 51 46 41 41 41 41 44 44 40 36 33 33 34 36 38 40 41 44 45 44 44 43 41 41 41 42 44 44 43 43 44 44 44 45 46 47
62 61 59 58 58 57 55 50 46 44 44 45 44 42 41 41 37 34 34 35 38 41 44 46 47 46 47 48 49 50 48 46 47 46 47 49 49 48 47 48 49 51
64 63 63 61 59 60 59 55 50 47 48 50 49 44 42 42 40 38 36 35 36 39 41 43 45 45 47 49 51 54 56 55 54 51 51 53 54 52 52 52 53 57
69 68 68 65 62 62 60 58 55 51 50 51 52 52 48 43 40 39 39 38 36 37 38 41 43 44 47 48 49 52 56 57 59 58 58 59 59 57 56 55 55 60
70 68 67 64 63 61 60 60 58 54 53 54 54 54 53 50 44 41 41 41 40 40 39 40 41 42 46 47 49 51 50 50 55 60 63 65 64 62 62 60 58 62
64 61 58 57 57 56 57 60 60 56 55 56 57 57 57 55 50 46 44 43 43 44 45 44 44 44 46 48 51 53 51 48 51 57 64 69 68 68 68 66 64 67
62 57 54 55 56 53 53 57 58 56 55 55 56 57 59 58 57 55 53 49 47 47 48 49 49 49 48 48 50 52 51 51 53 55 61 67 69 69 70 71 71 73
57 56 55 56 59 57 56 56 55 54 54 56 56 56 57 60 62 60 57 55 52 51 52 52 50 49 48 48 49 51 52 53 54 55 58 62 66 67 68 70 74 80
52 54 55 55 56 58 58 56 53 51 51 54 57 57 57 61 63 62 59 57 55 56 57 57 53 49 48 49 50 52 53 54 55 58 60 62 65 68 68 68 70 80
49 50 51 51 50 50 51 53 52 50 46 46 48 51 54 58 59 59 59 58 59 59 59 59 58 54 52 52 53 55 58 59 60 62 62 63 66 68 71 71 71 76
46 47 47 47 46 43 43 46 48 51 49 45 43 44 48 52 55 57 57 56 57 60 60 60 61 65 66 63 61 62 63 62 62 63 65 66 66 66 68 70 69 74
47 46 46 46 44 42 42 41 43 46 47 46 46 45 46 48 53 55 57 58 59 59 59 59 63 73 78 76 72 68 65 63 64 65 68 68 65 65 67 68 67 73
51 50 50 49 47 46 44 43 42 44 45 45 48 51 52 52 51 50 53 63 65 60 57 57 60 67 71 71 72 69 65 65 65 65 64 62 62 64 65 66 67 71
57 56 56 55 53 49 46 45 45 47 48 49 52 54 56 57 55 52 53 59 60 56 55 58 63 71 72 69 66 64 64 64 64 65 64 62 63 64 62 65 68 68
61 60 58 56 53 50 47 46 46 47 48 52 54 55 56 56 56 55 54 54 54 54 54 54 61 72 76 71 64 62 65 67 65 65 66 64 64 63 62 65 67 65
55 55 53 53 52 51 49 48 47 46 46 48 51 53 54 55 55 55 54 53 54 53 52 51 55 62 67 68 66 63 66 69 68 68 69 68 67 67 67 69 67 63
53 53 53 53 52 50 47 45 44 43 42 43 44 46 47 49 49 51 52 52 52 51 50 52 55 60 68 71 67 65 66 68 72 75 74 72 74 74 74 72 65 58